West Palm Beach, FL

3:03 PM EST on November 18, 2019 (GMT -0500)
Palm Beach International

Weather History for KPBI - September, 2019

Change the Weather History Date:

Saturday, September 28, 2019

  Actual Average Record
Temperature  
Mean Temperature 85 °F 81 °F  
Max Temperature 89 °F 87 °F 93 °F (1958)
Min Temperature 80 °F 75 °F 68 °F (1967)
Degree Days  
Heating Degree Days 0 0  
Month to date heating degree days 0 0  
Since 1 July heating degree days 0 0  
Cooling Degree Days 20 16  
Month to date cooling degree days 507 469  
Year to date cooling degree days 3673 3175  
Growing Degree Days 34 (Base 50)    
Moisture  
Dew Point 71 °F    
Average Humidity 67    
Maximum Humidity 74    
Minimum Humidity 59    
Precipitation  
Precipitation 0.00 in 0.25 in 2.45 in (1990)
Month to date precipitation 1.36 7.85  
Year to date precipitation 45.32 48.57  
Snow  
Snow 0.00 in - - ()
Month to date snowfall 0.0  
Since 1 July snowfall 0.0  
Since 1 September snowfall 0.0  
Snow Depth 0.00 in    
Sea Level Pressure  
Sea Level Pressure 30.04 in    
Wind  
Wind Speed 10 mph (East)    
Max Wind Speed 17 mph    
Max Gust Speed 24 mph    
Visibility 10 miles    
Events      
T = Trace of Precipitation, MM = Missing Value Source: NWS Daily Summary

Daily Weather History Graph

Daily Weather History Graph

Search for Another Location

Airport or City:

Astronomy

Sep. 28, 2019 Rise Set
Actual Time 7:11 AM EDT 7:10 PM EDT
Civil Twilight 6:48 AM EDT 7:33 PM EDT
Nautical Twilight 6:21 AM EDT 8:00 PM EDT
Astronomical Twilight 5:54 AM EDT 8:27 PM EDT
Moon 6:53 AM EDT (9/28) 7:31 PM EDT (9/28)
Length of Visible Light 12h 45m
Length of Day
11h 58m
Waning Crescent, 0% of the Moon is Illuminated
Sep 28
Waning Crescent
Sep 28
New
Oct 5
First Quarter
Oct 13
Full
Oct 21
Last Quarter

Hourly Weather History & Observations

Time (EDT) Temp. Heat Index Dew Point Humidity Pressure Visibility Wind Dir Wind Speed Gust Speed Precip Events Conditions
12:53 AM 82.0 °F 87.4 °F 73.0 °F 74% 30.00 in 10.0 mi East 12.7 mph - N/A   Scattered Clouds
1:53 AM 81.0 °F 85.2 °F 72.0 °F 74% 29.99 in 10.0 mi East 11.5 mph - N/A   Scattered Clouds
2:53 AM 81.0 °F 84.9 °F 71.1 °F 72% 29.98 in 10.0 mi East 11.5 mph - N/A   Scattered Clouds
3:53 AM 80.1 °F 83.2 °F 70.0 °F 71% 29.97 in 8.0 mi East 10.4 mph - N/A   Partly Cloudy
4:53 AM 80.1 °F 83.6 °F 71.1 °F 74% 29.97 in 8.0 mi East 8.1 mph - N/A   Partly Cloudy
5:53 AM 80.1 °F 83.6 °F 71.1 °F 74% 29.99 in 10.0 mi East 6.9 mph - N/A   Scattered Clouds
6:53 AM 80.1 °F 83.6 °F 71.1 °F 74% 30.01 in 10.0 mi East 5.8 mph - N/A   Scattered Clouds
7:53 AM 81.0 °F 84.9 °F 71.1 °F 72% 30.03 in 10.0 mi East 5.8 mph - N/A   Scattered Clouds
8:53 AM 82.9 °F 87.5 °F 71.1 °F 67% 30.05 in 10.0 mi East 9.2 mph - N/A   Scattered Clouds
9:53 AM 84.0 °F 89.6 °F 72.0 °F 67% 30.08 in 10.0 mi East 9.2 mph - N/A   Scattered Clouds
10:53 AM 86.0 °F 92.2 °F 72.0 °F 63% 30.09 in 10.0 mi East 8.1 mph - N/A   Scattered Clouds
11:53 AM 86.0 °F 92.2 °F 72.0 °F 63% 30.09 in 10.0 mi East 6.9 mph - N/A   Scattered Clouds
12:53 PM 88.0 °F 94.7 °F 72.0 °F 59% 30.08 in 10.0 mi East 9.2 mph - N/A   Scattered Clouds
1:53 PM 88.0 °F 94.7 °F 72.0 °F 59% 30.06 in 10.0 mi East 8.1 mph - N/A   Scattered Clouds
2:53 PM 87.1 °F 93.6 °F 72.0 °F 61% 30.05 in 10.0 mi ENE 11.5 mph - N/A   Scattered Clouds
3:53 PM 87.1 °F 92.8 °F 71.1 °F 59% 30.04 in 10.0 mi ENE 9.2 mph - N/A   Scattered Clouds
4:53 PM 86.0 °F 91.5 °F 71.1 °F 61% 30.03 in 10.0 mi NNE 15.0 mph 21.9 mph N/A   Scattered Clouds
5:53 PM 84.9 °F 89.4 °F 70.0 °F 61% 30.04 in 10.0 mi ENE 13.8 mph - N/A   Scattered Clouds
6:53 PM 84.0 °F 89.0 °F 71.1 °F 65% 30.03 in 10.0 mi ENE 12.7 mph - N/A   Mostly Cloudy
7:53 PM 82.9 °F 87.0 °F 70.0 °F 65% 30.04 in 10.0 mi ENE 12.7 mph - N/A   Scattered Clouds
8:53 PM 82.0 °F 85.9 °F 70.0 °F 67% 30.05 in 10.0 mi ENE 12.7 mph - N/A   Scattered Clouds
9:53 PM 82.9 °F 87.5 °F 71.1 °F 67% 30.06 in 10.0 mi ENE 9.2 mph - N/A   Scattered Clouds
10:53 PM 82.0 °F 85.9 °F 70.0 °F 67% 30.07 in 10.0 mi ENE 15.0 mph - N/A   Scattered Clouds
11:53 PM 82.0 °F 86.3 °F 71.1 °F 69% 30.07 in 10.0 mi ENE 12.7 mph - N/A   Scattered Clouds